Location: Newark
(47.4000°N, 7.5833°E)
Time: 22:38:51
(UTC+00:00)

N. Korean satellite - Pass Details

Date: 07 February 2020
Orbit: 456 x 505 km, 97.2° (Epoch: 26 February)

Event Time Altitude Azimuth Distance (km) Brightness Sun altitude
Rises 04:50:22 0° 20° (NNE) 2,588 10.5 -20.3°
Reaches altitude 10° 04:52:35 10° 30° (NNE) 1,707 9.7 -19.9°
Maximum altitude 04:55:59 35° 97° (E) 830 8.3 -19.4°
Drops below altitude 10° 04:59:23 10° 164° (SSE) 1,709 9.5 -18.8°
Sets 05:01:35 0° 174° (S) 2,592 10.4 -18.4°
